User: anonymous   Login
Location: Unspecified
(0.0000°N, 0.0000°E)
Time: 09:17:07
(UTC+00:00)
Language:

Diademe D-1D - Orbit

View from above orbital plane
View from above orbital plane
View from above satellite
View from above satellite

Ground track
Ground track

The orbit data is extracted from the following two-line orbital elements,

1  2680U 67014A   17086.58047977 -.00000045 +00000-0 +16120-4 0  9997
2  2680 039.4415 266.8870 0719971 347.3490 010.9995 13.37835144424399
Epoch (UTC): 27 March 2017 13:55:53
Eccentricity: 0.0719971
inclination: 39.4415°
perigee height: 578 km
apogee height: 1657 km
right ascension of ascending node: 266.8870°
argument of perigee: 347.3490°
revolutions per day: 13.37835144
mean anomaly at epoch: 10.9995°
orbit number at epoch: 42439

The dashed part of the orbit path shows where the satellite is in the earth's shadow,  

DLR